Погода в Широком

Украина / Днепропетровская область     47°40′58″N   33°16′12″E
темп.,
°C
ветер,
м/с
пор.,
м/с
влажн.,
%
обл.,
%
осадки,
мм/ч
давл.,
гПа
погр.,
м
24 января, пн
пн2423:00−5ссв71385100 0.0 1023498
02:00−5с71584100 0.0 1024516
05:00−5с81685100 0.1 1022650
08:00−6с81592100 0.7 1024671
11:00−5ссв81389100 0.8 1024688
14:00−4ссв71289100 0.9 1024665
17:00−5с61295100 1.2 1025598
20:00−5с71292100 1.8 1025575
25 января, вт
вт2523:00−5ссв61191100 0.4 1025530
02:00−6с5992100 0.4 1025450
05:00−8с5993100 0.1 1024359
08:00−8с5992100 0.3 1025380
11:00−6с5688100 0.2 1024473
14:00−5с4586100 0.4 1023533
17:00−7ссз259687 0.3 1022152
20:00−8ссз2496100 0.3 1023139
26 января, ср
ср2623:00−10сз119763 0.0 102210
02:00−12зсз119762 0.1 102112
05:00−12з1197100 0.0 102011
08:00−10ююз1196100 0.0 102041
11:00−6ююз2284100 0.0 1020274
14:00−4юз2276100 0.0 1019425
17:00−6зсз009079 0.0 102010
20:00−7в119769 0.1 102110
27 января, чт
чт2723:00−8зсз119893 0.1 102111
02:00−9ссз229872 0.1 102239
05:00−10ссз239741 0.0 102232
08:00−11ссз2297100 0.0 102233
11:00−6з2286100 0.0 1022244
14:00−4зюз457874 0.0 1020566
17:00−8ююз25915 0.0 101945
20:00−7ююз499187 0.0 1019165
28 января, пт
пт2823:00−5ююз499792 0.1 1017220
02:00−3ююз51097100 0.3 1016308
05:00−2юз51295100 0.4 1015326
08:00−1ююз51291100 0.4 1014310
11:00+1юз61288100 0.0 1013493
14:00+1юз61198100 0.1 1013464
17:000юз51197100 0.1 1012395
20:00−1юз512925 0.1 1013257